Valentine, NE

9:45 AM CDT on August 30, 2016 (GMT -0500)
Miller Field

Weather History for KVTN - October, 2011

Change the Weather History Date:

Friday, October 28, 2011

  Actual Average Record
Temperature  
Mean Temperature 40 °F 44 °F  
Max Temperature 55 °F 58 °F 85 °F (2001)
Min Temperature 24 °F 29 °F -6 °F (1925)
Degree Days  
Heating Degree Days 25 21  
Month to date heating degree days 376 451  
Since 1 July heating degree days 560 636  
Cooling Degree Days 0 0  
Month to date cooling degree days 21 1  
Year to date cooling degree days 912 818  
Moisture  
Dew Point 20 °F    
Average Humidity 51    
Maximum Humidity 81    
Minimum Humidity 20    
Precipitation  
Precipitation 0.00 in 0.04 in 0.87 in (1991)
Month to date precipitation 1.71 1.17  
Year to date precipitation 21.35 18.92  
Snow  
Snow 0.00 in 0.10 in 3.60 in (1905)
Month to date snowfall 0.0 1.2  
Since 1 July snowfall 0.0 1.9  
Since 1 September snowfall 0.0 1.9  
Snow Depth 0.00 in    
Sea Level Pressure  
Sea Level Pressure 30.23 in    
Wind  
Wind Speed 6 mph (West)    
Max Wind Speed 18 mph    
Max Gust Speed 24 mph    
Visibility 10 miles    
Events      
T = Trace of Precipitation, MM = Missing Value Source: NWS Daily Summary

Daily Weather History Graph

Daily Weather History Graph

Search for Another Location

Airport or City:

Trip Planner

Search our weather history database for the weather conditions in past years. The results will help you decide how hot, cold, wet, or windy it might be!

Date:

Astronomy

Oct. 28, 2011 Rise Set
Actual Time 8:11 AM CDT 6:40 PM CDT
Civil Twilight 7:41 AM CDT 7:09 PM CDT
Nautical Twilight 7:08 AM CDT 7:42 PM CDT
Astronomical Twilight 6:35 AM CDT 8:15 PM CDT
Moon 10:33 AM CDT (10/28) 8:00 PM CDT (10/28)
Length of Visible Light 11h 27m
Length of Day
10h 29m
Waxing Crescent, 5% of the Moon is Illuminated
Oct 28
Waxing Crescent
Nov 2
First Quarter
Nov 10
Full
Nov 18
Last Quarter
Nov 25
New

Hourly Weather History & Observations

Time (CDT) Temp. Windchill Dew Point Humidity Pressure Visibility Wind Dir Wind Speed Gust Speed Precip Events Conditions
12:52 AM 28.0 °F 19.3 °F 18.0 °F 66% 30.18 in 10.0 mi WNW 9.2 mph - N/A   Clear
1:52 AM 27.0 °F 18.7 °F 19.0 °F 72% 30.19 in 10.0 mi West 8.1 mph - N/A   Clear
2:52 AM 30.9 °F 24.3 °F 21.0 °F 67% 30.19 in 10.0 mi West 6.9 mph - N/A   Overcast
3:52 AM 32.0 °F 26.4 °F 21.9 °F 66% 30.20 in 10.0 mi SW 5.8 mph - N/A   Overcast
4:52 AM 33.1 °F 26.9 °F 21.9 °F 64% 30.22 in 10.0 mi West 6.9 mph - N/A   Mostly Cloudy
5:52 AM 28.0 °F 24.2 °F 21.0 °F 75% 30.25 in 10.0 mi West 3.5 mph - N/A   Clear
6:52 AM 26.1 °F 20.5 °F 19.9 °F 78% 30.27 in 10.0 mi West 4.6 mph - N/A   Clear
7:52 AM 26.1 °F 19.4 °F 21.0 °F 81% 30.30 in 10.0 mi West 5.8 mph - N/A   Clear
8:52 AM 26.1 °F 19.4 °F 21.9 °F 84% 30.32 in 10.0 mi West 5.8 mph - N/A   Clear
9:52 AM 35.1 °F 29.3 °F 23.0 °F 61% 30.32 in 10.0 mi West 6.9 mph - N/A   Clear
10:52 AM 44.1 °F 40.8 °F 26.1 °F 49% 30.30 in 10.0 mi WNW 5.8 mph - N/A   Clear
11:52 AM 50.0 °F - 23.0 °F 35% 30.29 in 10.0 mi WNW 10.4 mph - N/A   Clear
12:52 PM 52.0 °F - 19.9 °F 28% 30.28 in 10.0 mi NW 12.7 mph 20.7 mph N/A   Clear
1:52 PM 53.6 °F - 17.6 °F 24% 30.21 in 10.0 mi NW 10.4 mph 23.0 mph N/A   Clear
2:52 PM 54.0 °F - 15.1 °F 22% 30.22 in 10.0 mi NNW 12.7 mph 21.9 mph N/A   Clear
3:52 PM 55.0 °F - 16.0 °F 22% 30.21 in 10.0 mi West 8.1 mph - N/A   Clear
4:52 PM 53.1 °F - 17.1 °F 24% 30.21 in 10.0 mi NW 10.4 mph - N/A   Partly Cloudy
5:52 PM 52.0 °F - 17.1 °F 25% 30.20 in 10.0 mi NNW 5.8 mph - N/A   Clear
6:52 PM 46.0 °F - 18.0 °F 33% 30.21 in 10.0 mi Calm Calm - N/A   Clear
7:52 PM 37.9 °F 34.4 °F 19.0 °F 47% 30.22 in 10.0 mi SSE 4.6 mph - N/A   Clear
8:52 PM 34.0 °F 31.0 °F 19.0 °F 54% 30.21 in 10.0 mi South 3.5 mph - N/A   Clear
9:52 PM 34.0 °F 31.0 °F 19.9 °F 56% 30.18 in 10.0 mi SW 3.5 mph - N/A   Clear
10:52 PM 34.0 °F - 21.0 °F 59% 30.16 in 10.0 mi Calm Calm - N/A   Clear
11:52 PM 37.0 °F 31.0 °F 21.0 °F 52% 30.12 in 10.0 mi South 8.1 mph - N/A   Clear